TimeCST,TemperatureF,Dew PointF,Humidity,Sea Level PressureIn,VisibilityMPH,Wind Direction,Wind SpeedMPH,Gust SpeedMPH,PrecipitationIn,Events,Conditions,WindDirDegrees,DateUTC
12:53 AM,33.1,30.9,92,29.52,4.0,North,13.8,-,0.03,Rain,Rain,350,2013-01-30 06:53:00
1:41 AM,32.0,30.2,93,29.49,2.0,North,11.5,-,0.04,Snow,Light Snow,360,2013-01-30 07:41:00
1:53 AM,32.0,30.9,96,29.49,4.0,North,11.5,-,0.04,Snow,Light Snow,10,2013-01-30 07:53:00
2:07 AM,32.0,30.2,93,29.47,2.0,NNE,11.5,-,0.01,Snow,Light Snow,20,2013-01-30 08:07:00
2:18 AM,32.0,30.2,93,29.45,4.0,NNE,13.8,-,0.01,,Overcast,30,2013-01-30 08:18:00
2:53 AM,32.0,30.9,96,29.43,6.0,NNE,15.0,21.9,0.02,,Overcast,30,2013-01-30 08:53:00
3:29 AM,32.0,30.2,93,29.44,1.8,North,9.2,-,0.02,Snow,Light Snow,360,2013-01-30 09:29:00
3:53 AM,32.0,30.0,92,29.42,1.0,North,15.0,-,0.06,Snow,Light Snow,360,2013-01-30 09:53:00
4:09 AM,32.0,30.2,93,29.41,1.0,NNW,13.8,-,0.01,Snow,Light Snow,340,2013-01-30 10:09:00
4:35 AM,32.0,30.2,93,29.40,0.8,NNW,15.0,-,0.03,Snow,Light Snow,340,2013-01-30 10:35:00
4:53 AM,32.0,30.0,92,29.41,0.8,NNW,19.6,-,0.03,Snow,Light Snow,340,2013-01-30 10:53:00
5:41 AM,30.2,26.6,86,29.46,0.5,NW,28.8,34.5,0.01,Fog-Snow,Snow,320,2013-01-30 11:41:00
5:53 AM,28.9,27.0,92,29.49,0.5,NNW,26.5,36.8,0.02,Fog-Snow,Snow,330,2013-01-30 11:53:00
6:53 AM,28.0,26.1,92,29.50,0.8,NNW,29.9,36.8,0.00,Snow,Light Snow,340,2013-01-30 12:53:00
7:02 AM,28.4,26.6,93,29.47,0.8,NNW,29.9,39.1,0.00,,Overcast,340,2013-01-30 13:02:00
7:24 AM,28.4,26.6,93,29.48,1.0,NNW,18.4,-,0.00,,Overcast,330,2013-01-30 13:24:00
7:34 AM,28.4,26.6,93,29.47,0.8,NNW,25.3,33.4,0.00,,Overcast,340,2013-01-30 13:34:00
7:53 AM,27.0,25.0,92,29.49,0.5,NNW,31.1,36.8,0.00,Fog,Light Freezing Fog,340,2013-01-30 13:53:00
8:09 AM,26.6,24.8,93,29.47,1.0,NNW,24.2,33.4,N/A,,Overcast,340,2013-01-30 14:09:00
8:18 AM,26.6,24.8,93,29.47,0.8,NNW,28.8,35.7,N/A,,Overcast,340,2013-01-30 14:18:00
8:30 AM,26.6,24.8,93,29.47,0.8,NNW,29.9,-,N/A,,Overcast,340,2013-01-30 14:30:00
8:38 AM,26.6,24.8,93,29.48,1.2,NNW,27.6,35.7,N/A,,Overcast,340,2013-01-30 14:38:00
8:45 AM,26.6,24.8,93,29.48,2.0,NNW,21.9,31.1,N/A,,Overcast,330,2013-01-30 14:45:00
8:53 AM,26.1,24.1,92,29.51,3.0,NNW,25.3,33.4,N/A,,Overcast,330,2013-01-30 14:53:00
9:02 AM,26.6,23.0,86,29.49,2.0,NNW,24.2,-,N/A,,Overcast,340,2013-01-30 15:02:00
9:12 AM,24.8,21.2,86,29.50,1.5,NNW,28.8,35.7,N/A,,Overcast,330,2013-01-30 15:12:00
9:27 AM,24.8,21.2,86,29.50,2.0,NNW,24.2,-,N/A,,Overcast,330,2013-01-30 15:27:00
9:40 AM,24.8,21.2,86,29.51,2.5,NW,23.0,29.9,N/A,,Overcast,320,2013-01-30 15:40:00
9:53 AM,25.0,21.9,88,29.55,2.0,NW,25.3,32.2,N/A,,Overcast,320,2013-01-30 15:53:00
10:00 AM,24.8,21.2,86,29.53,1.0,NNW,26.5,35.7,N/A,,Overcast,330,2013-01-30 16:00:00
10:05 AM,24.8,21.2,86,29.53,0.8,NNW,31.1,38.0,N/A,,Overcast,330,2013-01-30 16:05:00
10:07 AM,24.8,21.2,86,29.53,0.8,NNW,28.8,38.0,N/A,,Overcast,330,2013-01-30 16:07:00
10:26 AM,24.8,21.2,86,29.54,1.0,NW,26.5,32.2,N/A,,Overcast,320,2013-01-30 16:26:00
10:53 AM,25.0,21.0,85,29.59,1.2,NW,25.3,36.8,N/A,,Overcast,320,2013-01-30 16:53:00
11:11 AM,24.8,21.2,86,29.57,0.8,NW,24.2,28.8,N/A,,Overcast,320,2013-01-30 17:11:00
11:35 AM,23.0,19.4,86,29.58,0.5,NW,24.2,34.5,N/A,Fog,Light Freezing Fog,320,2013-01-30 17:35:00
11:53 AM,23.0,19.0,85,29.61,0.5,NW,24.2,35.7,N/A,Fog,Light Freezing Fog,310,2013-01-30 17:53:00
12:15 PM,21.2,17.6,86,29.59,0.5,NW,25.3,34.5,N/A,Fog,Light Freezing Fog,310,2013-01-30 18:15:00
12:28 PM,21.2,17.6,86,29.59,0.2,NW,23.0,36.8,N/A,Fog,Light Freezing Fog,310,2013-01-30 18:28:00
12:53 PM,21.9,17.1,82,29.63,0.5,NW,20.7,34.5,0.01,,Haze,310,2013-01-30 18:53:00
1:19 PM,21.2,17.6,86,29.60,0.5,NW,26.5,36.8,N/A,,Haze,310,2013-01-30 19:19:00
1:53 PM,21.9,17.1,82,29.64,1.0,NW,31.1,39.1,N/A,,Haze,320,2013-01-30 19:53:00
2:48 PM,21.2,15.8,80,29.64,3.0,WNW,20.7,31.1,N/A,,Haze,300,2013-01-30 20:48:00
2:53 PM,21.9,16.0,78,29.67,3.0,NW,19.6,29.9,N/A,,Haze,310,2013-01-30 20:53:00
3:44 PM,21.2,14.0,74,29.67,3.0,NW,21.9,31.1,N/A,,Haze,310,2013-01-30 21:44:00
3:53 PM,21.9,15.1,75,29.70,5.0,NW,23.0,29.9,N/A,,Haze,310,2013-01-30 21:53:00
4:49 PM,21.2,14.0,74,29.69,5.0,NW,26.5,32.2,N/A,,Haze,310,2013-01-30 22:49:00
4:53 PM,21.0,14.0,74,29.73,3.0,NW,21.9,34.5,N/A,,Haze,310,2013-01-30 22:53:00
5:00 PM,21.2,12.2,68,29.70,4.0,NW,23.0,31.1,N/A,,Haze,310,2013-01-30 23:00:00
5:53 PM,19.9,12.9,74,29.76,10.0,WNW,19.6,26.5,N/A,,Overcast,300,2013-01-30 23:53:00
6:53 PM,19.0,10.9,71,29.81,9.0,WNW,19.6,28.8,0.00,Snow,Light Snow,300,2013-01-31 00:53:00
7:53 PM,18.0,10.0,71,29.82,10.0,WNW,15.0,-,0.00,,Mostly Cloudy,300,2013-01-31 01:53:00
8:04 PM,17.6,10.4,73,29.79,10.0,WNW,13.8,-,N/A,,Partly Cloudy,300,2013-01-31 02:04:00
8:53 PM,17.1,9.0,71,29.85,10.0,WNW,8.1,-,N/A,,Mostly Cloudy,290,2013-01-31 02:53:00
9:53 PM,18.0,10.0,71,29.85,10.0,West,8.1,-,N/A,,Overcast,270,2013-01-31 03:53:00
10:22 PM,19.4,10.4,68,29.82,10.0,West,10.4,-,N/A,,Overcast,260,2013-01-31 04:22:00
10:53 PM,19.9,12.9,74,29.85,10.0,West,11.5,-,N/A,,Overcast,270,2013-01-31 04:53:00
11:07 PM,19.4,12.2,74,29.82,10.0,West,11.5,-,N/A,,Overcast,270,2013-01-31 05:07:00
11:34 PM,19.4,12.2,74,29.83,10.0,West,15.0,-,N/A,,Overcast,280,2013-01-31 05:34:00
11:53 PM,19.9,12.9,74,29.87,9.0,WNW,12.7,-,N/A,,Overcast,290,2013-01-31 05:53:00